Regional Weather Roundup
Issued by NWS

Home | Current Version | Previous Version | Graphics & Text | Print | Product List | Glossary On
Versions: 1 2 3 4 5 6 7 8 9 10 11 12 13 14 15 16 17 18 19 20 21 22 23 24 25 26 27 28 29 30 31 32 33 34 35 36 37 38 39 40 41 42 43 44 45 46 47 48 49 50
000
ASUS43 KBIS 271310
RWRND

NORTH DAKOTA REGIONAL WEATHER ROUNDUP
NATIONAL WEATHER SERVICE BISMARCK ND
800 AM CDT WED AUG 27 2014

NOTE: "FAIR" INDICATES FEW OR NO CLOUDS BELOW 12,000 FEET WITH NO
SIGNIFICANT WEATHER AND/OR OBSTRUCTIONS TO VISIBILITY.


NDZ001>003-009>011-017-271400-
NORTHWEST NORTH DAKOTA

CITY           SKY/WX    TMP DP  RH WIND       PRES   REMARKS
WILLISTON      CLEAR     52  51  97 CALM      30.11S
MINOT          CLEAR     54  50  86 SW8       30.13R
MINOT AFB      CLEAR     50  50 100 S3        30.13R
$$

NDZ018>021-031>035-040>046-271400-
SOUTHWEST NORTH DAKOTA

CITY           SKY/WX    TMP DP  RH WIND       PRES   REMARKS
BISMARCK       FOG       50  50 100 NE5       30.17S VSB 1/4
DICKINSON      FOG       51  50  96 S7        30.13S VSB 1
GARRISON         N/A     47  47 100 CALM      30.15S
HETTINGER ARPT FOG       47  46  97 CALM      30.17S VSB 1/4
$$

NDZ004>008-012>016-024-026-027-054-271400-
NORTHEAST NORTH DAKOTA

CITY           SKY/WX    TMP DP  RH WIND       PRES   REMARKS
GRAND FORKS    MOSUNNY   51  50  96 S5        30.18R
GRND FRKS AFB  SUNNY     52  52 100 S2        30.18R
DEVILS LAKE    SUNNY     52  46  82 CALM      30.16S
$$

NDZ022-023-025-028>030-036>039-047>053-271400-
SOUTHEAST NORTH DAKOTA

CITY           SKY/WX    TMP DP  RH WIND       PRES   REMARKS
FARGO          CLOUDY    56  55  97 CALM      30.19R
JAMESTOWN      FOG       51  50  96 CALM      30.18R VSB 1/4
$$



USA.gov is the U.S. government's official web portal to all federal, state and local government web resources and services.